TimePDT,TemperatureF,Dew PointF,Humidity,Sea Level PressureIn,VisibilityMPH,Wind Direction,Wind SpeedMPH,Gust SpeedMPH,PrecipitationIn,Events,Conditions,WindDirDegrees,DateUTC
12:56 AM,50.0,45.0,83,30.20,10.0,SW,3.5,-,N/A,,Scattered Clouds,220,2013-05-11 07:56:00
1:56 AM,50.0,46.0,86,30.20,10.0,South,4.6,-,N/A,,Mostly Cloudy,190,2013-05-11 08:56:00
2:56 AM,51.1,45.0,80,30.20,10.0,SSW,3.5,-,N/A,,Mostly Cloudy,200,2013-05-11 09:56:00
3:56 AM,51.1,46.0,83,30.18,10.0,SSE,4.6,-,N/A,,Overcast,160,2013-05-11 10:56:00
4:56 AM,50.0,46.0,86,30.18,10.0,Calm,Calm,-,N/A,,Overcast,0,2013-05-11 11:56:00
5:56 AM,52.0,46.0,80,30.17,10.0,SW,3.5,-,N/A,,Overcast,220,2013-05-11 12:56:00
6:56 AM,51.1,45.0,80,30.18,10.0,SW,6.9,-,N/A,,Overcast,230,2013-05-11 13:56:00
7:56 AM,53.1,46.0,77,30.18,10.0,Calm,Calm,-,N/A,,Overcast,0,2013-05-11 14:56:00
8:56 AM,54.0,45.0,72,30.18,10.0,WSW,3.5,-,N/A,,Overcast,250,2013-05-11 15:56:00
9:56 AM,55.0,46.0,72,30.17,10.0,West,4.6,-,N/A,,Mostly Cloudy,270,2013-05-11 16:56:00
10:56 AM,57.9,48.0,70,30.14,10.0,NW,4.6,-,N/A,,Mostly Cloudy,310,2013-05-11 17:56:00
11:56 AM,54.0,46.0,75,30.14,10.0,NW,5.8,-,N/A,,Overcast,310,2013-05-11 18:56:00
12:56 PM,57.9,48.9,72,30.12,10.0,NW,3.5,-,N/A,,Mostly Cloudy,310,2013-05-11 19:56:00
1:56 PM,57.9,48.9,72,30.10,10.0,NNW,3.5,-,N/A,,Overcast,330,2013-05-11 20:56:00
2:56 PM,61.0,50.0,67,30.09,10.0,WNW,6.9,-,N/A,,Mostly Cloudy,290,2013-05-11 21:56:00
3:56 PM,55.9,48.9,77,30.09,10.0,West,6.9,-,N/A,,Mostly Cloudy,260,2013-05-11 22:56:00
4:56 PM,55.0,48.0,77,30.09,10.0,West,8.1,-,N/A,,Mostly Cloudy,260,2013-05-11 23:56:00
5:56 PM,54.0,46.9,77,30.06,10.0,WSW,4.6,-,N/A,,Overcast,250,2013-05-12 00:56:00
6:56 PM,54.0,46.9,77,30.03,10.0,Calm,Calm,-,N/A,,Overcast,0,2013-05-12 01:56:00
7:56 PM,54.0,46.9,77,30.03,10.0,Calm,Calm,-,N/A,,Overcast,0,2013-05-12 02:56:00
8:56 PM,54.0,46.0,75,30.05,10.0,SW,6.9,-,N/A,,Overcast,230,2013-05-12 03:56:00
9:56 PM,53.1,50.0,89,30.06,10.0,Calm,Calm,-,N/A,,Overcast,0,2013-05-12 04:56:00
10:50 PM,53.6,48.2,82,30.03,10.0,SE,3.5,-,0.00,Rain,Light Rain,130,2013-05-12 05:50:00
10:56 PM,54.0,48.9,83,30.04,10.0,SSE,4.6,-,0.00,Rain,Light Rain,150,2013-05-12 05:56:00
11:56 PM,55.0,48.0,77,30.05,10.0,SSW,3.5,-,0.00,Rain,Light Rain,200,2013-05-12 06:56:00